GW1492 Weather Reports


Display with metric or nautical units.
time (UTC)temp
F
wind
direction
speed
MPH
gust
MPH
rain 1hr
in
rain 24hr
in
rain mn
in
humidity
%
barometer
mb
20260504202114 67 348 2.0 2.0 0.00 0.00 0.00 61 1015.2
20260504201541 67 11 2.0 3.0 0.00 0.00 0.00 64 1015.2
20260504200320 67 355 1.0 2.0 0.00 0.00 0.00 63 1015.2
20260504195752 67 3 0.0 1.0 0.00 0.00 0.00 59 1015.5
20260504195125 67 98 0.0 2.0 0.00 0.00 0.00 57 1015.2
20260504194552 67 353 2.0 2.0 0.00 0.00 0.00 64 1015.5
20260504193936 67 12 2.0 2.0 0.00 0.00 0.00 61 1015.5
20260504193338 67 351 2.0 3.0 0.00 0.00 0.00 57 1015.9
20260504192722 69 125 2.0 2.0 0.00 0.00 0.00 54 1015.5
20260504192139 70 264 3.0 4.0 0.00 0.00 0.00 51 1015.5
20260504191533 72 353 1.0 2.0 0.00 0.00 0.00 54 1015.9
20260504190949 72 14 2.0 3.0 0.00 0.00 0.00 55 1015.9
20260504185733 72 1 1.0 2.0 0.00 0.00 0.00 53 1016.2
20260504184535 72 115 0.0 0.0 0.00 0.00 0.00 48 1016.2
20260504183943 72 196 1.0 2.0 0.00 0.00 0.00 54 1016.2
20260504183329 71 104 3.0 4.0 0.00 0.00 0.00 52 1016.2
20260504182741 69 70 1.0 2.0 0.00 0.00 0.00 60 1016.2
20260504182142 70 243 4.0 5.0 0.00 0.00 0.00 54 1016.2
20260504181512 66 280 2.0 3.0 0.00 0.00 0.00 55 1016.2
20260504180923 68 273 1.0 2.0 0.00 0.00 0.00 56 1016.2
20260504180320 67 299 1.0 2.0 0.00 0.00 0.00 62 1016.2
20260504175748 66 283 2.0 3.0 0.00 0.00 0.00 58 1016.2
20260504174534 66 16 0.0 1.0 0.00 0.00 0.00 64 1016.5
20260504173931 65 297 1.0 2.0 0.00 0.00 0.00 67 1016.9
20260504172713 65 292 2.0 3.0 0.00 0.00 0.00 65 1017.2
20260504172134 65 290 1.0 2.0 0.00 0.00 0.00 67 1016.9
20260504171554 64 325 1.0 2.0 0.00 0.00 0.00 68 1017.2
20260504170919 64 325 1.0 2.0 0.00 0.00 0.00 68 1017.6
20260504170335 65 186 2.0 3.0 0.00 0.00 0.00 69 1017.6
20260504160347 61 306 0.0 1.0 0.00 0.00 0.00 75 1017.9
20260504141236 47 291 0.0 0.0 0.00 0.00 0.00 89 1018.9
20260504140653 47 247 0.0 1.0 0.00 0.00 0.00 89 1018.9
20260504130633 49 297 0.0 0.0 0.00 0.00 0.00 81 1019.6
20260504110627 46 25 0.0 0.0 0.00 0.00 0.00 73 1016.9
20260504081815 46 232 0.0 0.0 0.00 0.00 0.00 78 1017.6
20260504081216 46 336 0.0 0.0 0.00 0.00 0.00 78 1017.6
20260504080626 46 317 0.0 0.0 0.00 0.00 0.00 76 1017.2
20260504045417 45 134 0.0 0.0 0.00 0.00 0.00 78 1018.2
20260504044831 44 277 0.0 0.0 0.00 0.00 0.00 80 1018.6
20260504044221 44 240 0.0 0.0 0.00 0.00 0.00 78 1018.2
20260504043642 44 29 0.0 0.0 0.00 0.00 0.00 79 1017.9
20260504043048 44 247 0.0 0.0 0.00 0.00 0.00 78 1017.9
20260504042431 44 118 0.0 0.0 0.00 0.00 0.00 78 1017.9
20260504041228 44 96 0.0 0.0 0.00 0.00 0.00 78 1017.9
20260504040644 44 32 0.0 0.0 0.00 0.00 0.00 78 1017.9
20260504040030 44 97 0.0 0.0 0.00 0.00 0.00 77 1017.9
20260504035428 44 108 0.0 0.0 0.00 0.00 0.00 77 1017.9
20260504034215 45 109 0.0 1.0 0.00 0.00 0.00 77 1017.9
20260504033612 45 105 0.0 0.0 0.00 0.00 0.00 76 1017.9
20260504033036 45 294 0.0 0.0 0.00 0.00 0.00 76 1017.9
20260504031244 45 13 0.0 0.0 0.00 0.00 0.00 75 1017.9
20260504030018 45 93 0.0 0.0 0.00 0.00 0.00 74 1017.9
20260504025414 45 247 0.0 0.0 0.00 0.00 0.00 73 1017.9
20260504024824 46 121 0.0 0.0 0.00 0.00 0.00 73 1017.9
20260504024220 46 270 0.0 0.0 0.00 0.00 0.00 72 1017.9
20260504023633 46 295 0.0 0.0 0.00 0.00 0.00 72 1017.9
20260504023027 46 263 0.0 0.0 0.00 0.00 0.00 72 1017.9
20260504022437 46 247 0.0 0.0 0.00 0.00 0.00 71 1018.2
20260504021834 47 184 0.0 0.0 0.00 0.00 0.00 68 1017.9
20260504020620 47 229 0.0 0.0 0.00 0.00 0.00 68 1017.9
20260504020020 48 72 0.0 0.0 0.00 0.00 0.00 65 1017.6
20260504015443 48 130 0.0 0.0 0.00 0.00 0.00 65 1017.6
20260504014826 48 345 0.0 0.0 0.00 0.00 0.00 67 1017.6
20260504014244 48 335 0.0 0.0 0.00 0.00 0.00 66 1017.6
20260504013650 48 273 0.0 0.0 0.00 0.00 0.00 66 1017.9
20260504012412 49 340 0.0 0.0 0.00 0.00 0.00 63 1017.6
20260504011837 49 261 0.0 0.0 0.00 0.00 0.00 62 1017.9
20260504011214 49 124 0.0 0.0 0.00 0.00 0.00 62 1017.6
20260504010635 49 321 0.0 0.0 0.00 0.00 0.00 61 1017.6
20260504010049 50 103 0.0 0.0 0.00 0.00 0.00 60 1017.2
20260504005438 50 337 0.0 0.0 0.00 0.00 0.00 60 1017.6
20260504004247 51 78 0.0 0.0 0.00 0.00 0.00 55 1017.2
20260504003614 52 8 0.0 0.0 0.00 0.00 0.00 50 1017.6
20260504003040 52 18 0.0 0.0 0.00 0.00 0.00 53 1017.6
20260504002436 52 32 0.0 1.0 0.00 0.00 0.00 47 1017.2
20260504001818 53 28 0.0 1.0 0.00 0.00 0.00 48 1016.9
20260504001219 53 32 1.0 2.0 0.00 0.00 0.00 46 1017.2
20260504000654 53 32 1.0 1.0 0.00 0.00 0.00 46 1016.9
20260504000042 54 40 0.0 1.0 0.00 0.00 0.00 46 1016.9
20260503235412 54 51 0.0 1.0 0.00 0.00 0.00 47 1017.2
20260503234815 54 6 0.0 1.0 0.00 0.00 0.00 47 1017.2
20260503234236 54 20 0.0 1.0 0.00 0.00 0.00 43 1017.2
20260503233627 54 48 0.0 0.0 0.00 0.00 0.00 45 1017.2
20260503233035 55 72 0.0 0.0 0.00 0.00 0.00 43 1017.2
20260503232447 55 48 0.0 1.0 0.00 0.00 0.00 40 1016.9
20260503231819 55 22 1.0 2.0 0.00 0.00 0.00 41 1016.9
20260503231252 56 53 0.0 1.0 0.00 0.00 0.00 38 1017.2
20260503230636 56 90 0.0 0.0 0.00 0.00 0.00 39 1017.2
20260503230041 56 8 0.0 0.0 0.00 0.00 0.00 41 1017.2
20260503224223 56 278 1.0 2.0 0.00 0.00 0.00 39 1017.6
20260503223614 56 353 1.0 2.0 0.00 0.00 0.00 39 1017.2
20260503223014 57 2 0.0 1.0 0.00 0.00 0.00 39 1017.6
20260503222422 57 349 2.0 3.0 0.00 0.00 0.00 39 1017.6
20260503221820 57 344 2.0 2.0 0.00 0.00 0.00 39 1017.2
20260503221224 57 66 1.0 2.0 0.00 0.00 0.00 40 1017.2
20260503220654 57 70 0.0 1.0 0.00 0.00 0.00 40 1017.6
20260503220044 58 29 0.0 1.0 0.00 0.00 0.00 38 1017.6
20260503215439 57 347 2.0 2.0 0.00 0.00 0.00 38 1017.2
20260503214810 57 27 1.0 1.0 0.00 0.00 0.00 38 1017.6
20260503214224 58 24 0.0 0.0 0.00 0.00 0.00 40 1017.6
20260503213647 58 333 0.0 1.0 0.00 0.00 0.00 41 1017.6
20260503212440 58 291 2.0 3.0 0.00 0.00 0.00 35 1017.6
20260503211827 58 59 0.0 1.0 0.00 0.00 0.00 37 1017.6
20260503211227 58 0 1.0 2.0 0.00 0.00 0.00 35 1017.6
20260503210647 58 284 0.0 0.0 0.00 0.00 0.00 36 1017.6
20260503210017 58 352 1.0 2.0 0.00 0.00 0.00 36 1017.9
20260503205430 58 238 5.0 7.0 0.00 0.00 0.00 34 1017.6
20260503204242 58 41 2.0 3.0 0.00 0.00 0.00 34 1017.9
20260503203038 57 156 1.0 1.0 0.00 0.00 0.00 32 1017.9
20260503202422 58 247 6.0 7.0 0.00 0.00 0.00 33 1017.9